Weather History for KCQW - October, 2011

Change the Weather History Date:

Sunday, October 9, 2011

  Actual Average (KFLO) Record (KFLO)
Temperature  
Mean Temperature 66 °F 66 °F  
Max Temperature 78 °F 77 °F 92 °F (1990)
Min Temperature 55 °F 56 °F 38 °F (1978)
Degree Days  
Heating Degree Days 0 2  
Month to date heating degree days 15  
Since 1 July heating degree days 24  
Cooling Degree Days 2 4  
Month to date cooling degree days 40  
Year to date cooling degree days 1996  
Growing Degree Days 16 (Base 50)    
Moisture  
Dew Point 55 °F    
Average Humidity 72    
Maximum Humidity 94    
Minimum Humidity 47    
Precipitation  
Precipitation 0.00 in 0.11 in 2.06 in (1986)
Month to date precipitation 1.03  
Year to date precipitation 35.18  
Sea Level Pressure  
Sea Level Pressure 30.35 in    
Wind  
Wind Speed 8 mph (NE)    
Max Wind Speed 17 mph    
Max Gust Speed 25 mph    
Visibility 10 miles    
Events      
T = Trace of Precipitation, MM = Missing Value Source: NWS Daily Summary

Daily Weather History Graph

Daily Weather History Graph

Search for Another Location

Airport or City:

Trip Planner

Search our weather history database for the weather conditions in past years. The results will help you decide how hot, cold, wet, or windy it might be!

Date:

Astronomy

Oct. 09, 2011 Rise Set
Actual Time 7:20 AM EDT 6:53 PM EDT
Civil Twilight 6:55 AM EDT 7:18 PM EDT
Nautical Twilight 6:25 AM EDT 7:47 PM EDT
Astronomical Twilight 5:56 AM EDT 8:16 PM EDT
Moon 5:26 PM EDT (10/9) 5:07 AM EDT (10/9)
Length of Visible Light 12h 23m
Length of Day
11h 32m
Waxing Gibbous, 95% of the Moon is Illuminated
Oct 9
Waxing Gibbous
Oct 11
Full
Oct 19
Last Quarter
Oct 26
New
Nov 2
First Quarter

Hourly Weather History & Observations

Time (EDT) Temp. Dew Point Humidity Pressure Visibility Wind Dir Wind Speed Gust Speed Precip Events Conditions
12:15 AM 57.2 °F 51.8 °F 82% 30.39 in 10.0 mi NE 4.6 mph - N/A   Clear
12:35 AM 59.0 °F 51.8 °F 77% 30.39 in 10.0 mi NE 4.6 mph - N/A   Clear
12:55 AM 57.2 °F 51.8 °F 82% 30.38 in 10.0 mi NNE 4.6 mph - N/A   Clear
1:15 AM 57.2 °F 51.8 °F 82% 30.38 in 10.0 mi NE 4.6 mph - N/A   Clear
1:35 AM 59.0 °F 53.6 °F 82% 30.38 in 10.0 mi NE 5.8 mph - N/A   Mostly Cloudy
1:55 AM 59.0 °F 53.6 °F 82% 30.38 in 10.0 mi NE 4.6 mph - N/A   Overcast
2:15 AM 60.8 °F 53.6 °F 77% 30.38 in 10.0 mi NNE 5.8 mph - N/A   Overcast
2:35 AM 60.8 °F 53.6 °F 77% 30.37 in 10.0 mi NE 5.8 mph - N/A   Overcast
2:55 AM 60.8 °F 53.6 °F 77% 30.37 in 10.0 mi NE 6.9 mph - N/A   Overcast
3:35 AM 57.2 °F 53.6 °F 88% 30.36 in 10.0 mi NE 6.9 mph - N/A   Partly Cloudy
3:55 AM 57.2 °F 53.6 °F 88% 30.36 in 10.0 mi NNE 6.9 mph - N/A   Clear
4:15 AM 57.2 °F 53.6 °F 88% 30.35 in 10.0 mi NNE 5.8 mph - N/A   Clear
4:35 AM 57.2 °F 53.6 °F 88% 30.36 in 10.0 mi NNE 5.8 mph - N/A   Clear
4:55 AM 55.4 °F 53.6 °F 94% 30.36 in 10.0 mi NNE 5.8 mph - N/A   Clear
5:15 AM 55.4 °F 51.8 °F 88% 30.36 in 10.0 mi NNE 5.8 mph - N/A   Clear
5:35 AM 55.4 °F 51.8 °F 88% 30.36 in 10.0 mi NNE 4.6 mph - N/A   Clear
5:55 AM 55.4 °F 51.8 °F 88% 30.36 in 10.0 mi NNE 5.8 mph - N/A   Clear
6:15 AM 55.4 °F 53.6 °F 94% 30.37 in 10.0 mi NNE 5.8 mph - N/A   Partly Cloudy
6:35 AM 55.4 °F 53.6 °F 94% 30.37 in 10.0 mi NNE 6.9 mph - N/A   Partly Cloudy
7:15 AM 55.4 °F 53.6 °F 94% 30.37 in 10.0 mi NNE 6.9 mph - N/A   Mostly Cloudy
7:35 AM 57.2 °F 53.6 °F 88% 30.38 in 10.0 mi NE 6.9 mph - N/A   Mostly Cloudy
7:55 AM 57.2 °F 53.6 °F 88% 30.37 in 10.0 mi NNE 6.9 mph - N/A   Scattered Clouds
8:15 AM 57.2 °F 53.6 °F 88% 30.37 in 10.0 mi NNE 8.1 mph - N/A   Clear
8:55 AM 59.0 °F 53.6 °F 82% 30.38 in 10.0 mi NE 6.9 mph - N/A   Partly Cloudy
9:15 AM 60.8 °F 53.6 °F 77% 30.38 in 10.0 mi NE 8.1 mph - N/A   Clear
9:35 AM 62.6 °F 53.6 °F 72% 30.38 in 10.0 mi NNE 9.2 mph - N/A   Clear
9:55 AM 62.6 °F 53.6 °F 72% 30.39 in 10.0 mi NNE 9.2 mph - N/A   Clear
10:15 AM 64.4 °F 53.6 °F 68% 30.38 in 10.0 mi NE 9.2 mph - N/A   Clear
10:35 AM 66.2 °F 55.4 °F 68% 30.38 in 10.0 mi NE 9.2 mph - N/A   Clear
10:55 AM 68.0 °F 55.4 °F 64% 30.38 in 10.0 mi NE 10.4 mph - N/A   Clear
11:15 AM 69.8 °F 57.2 °F 64% 30.38 in 10.0 mi ENE 10.4 mph - N/A   Clear
11:35 AM 71.6 °F 57.2 °F 60% 30.37 in 10.0 mi ENE 12.7 mph - N/A   Clear
11:55 AM 71.6 °F 57.2 °F 60% 30.36 in 10.0 mi NE 11.5 mph - N/A   Clear
12:15 PM 73.4 °F 59.0 °F 61% 30.36 in 10.0 mi NE 13.8 mph 21.9 mph N/A   Clear
12:35 PM 75.2 °F 59.0 °F 57% 30.35 in 10.0 mi ENE 17.3 mph 24.2 mph N/A   Clear
12:55 PM 75.2 °F 57.2 °F 53% 30.33 in 10.0 mi ENE 12.7 mph 23.0 mph N/A   Clear
1:35 PM 77.0 °F 57.2 °F 50% 30.31 in 10.0 mi NE 16.1 mph 21.9 mph N/A   Clear
1:55 PM 77.0 °F 57.2 °F 50% 30.30 in 10.0 mi ENE 13.8 mph 25.3 mph N/A   Clear
2:15 PM 78.8 °F 57.2 °F 47% 30.29 in 10.0 mi NE 15.0 mph 24.2 mph N/A   Clear
2:35 PM 78.8 °F 57.2 °F 47% 30.29 in 10.0 mi East 16.1 mph 21.9 mph N/A   Clear
2:55 PM 77.0 °F 57.2 °F 50% 30.28 in 10.0 mi ENE 16.1 mph 19.6 mph N/A   Partly Cloudy
3:15 PM 77.0 °F 59.0 °F 54% 30.28 in 10.0 mi ENE 16.1 mph 21.9 mph N/A   Mostly Cloudy
3:35 PM 78.8 °F 59.0 °F 51% 30.27 in 10.0 mi East 10.4 mph 19.6 mph N/A   Scattered Clouds
3:55 PM 77.0 °F 59.0 °F 54% 30.27 in 10.0 mi ENE 17.3 mph - N/A   Partly Cloudy
4:35 PM 77.0 °F 59.0 °F 54% 30.27 in 10.0 mi NE 12.7 mph - N/A   Partly Cloudy
4:55 PM 77.0 °F 59.0 °F 54% 30.26 in 10.0 mi ENE 12.7 mph - N/A   Partly Cloudy
5:15 PM 75.2 °F 57.2 °F 53% 30.26 in 10.0 mi East 12.7 mph 18.4 mph N/A   Scattered Clouds
5:35 PM 75.2 °F 59.0 °F 57% 30.26 in 10.0 mi ENE 9.2 mph - N/A   Partly Cloudy
5:55 PM 75.2 °F 59.0 °F 57% 30.26 in 10.0 mi ENE 9.2 mph - N/A   Clear
6:35 PM 73.4 °F 60.8 °F 65% 30.25 in 10.0 mi NE 6.9 mph - N/A   Scattered Clouds
6:55 PM 71.6 °F 60.8 °F 69% 30.25 in 10.0 mi NE 6.9 mph - N/A   Partly Cloudy
7:15 PM 71.6 °F 60.8 °F 69% 30.25 in 10.0 mi NE 5.8 mph - N/A   Clear
7:35 PM 69.8 °F 60.8 °F 73% 30.25 in 10.0 mi NE 5.8 mph - N/A   Clear
7:55 PM 69.8 °F 60.8 °F 73% 30.25 in 10.0 mi NE 6.9 mph - N/A   Scattered Clouds
8:15 PM 69.8 °F 60.8 °F 73% 30.26 in 10.0 mi NE 6.9 mph - N/A   Mostly Cloudy
8:35 PM 68.0 °F 60.8 °F 78% 30.25 in 10.0 mi NE 6.9 mph - N/A   Partly Cloudy
8:55 PM 68.0 °F 59.0 °F 73% 30.25 in 10.0 mi NE 8.1 mph - N/A   Partly Cloudy
9:15 PM 69.8 °F 59.0 °F 68% 30.25 in 10.0 mi NE 9.2 mph - N/A   Mostly Cloudy
9:35 PM 69.8 °F 59.0 °F 68% 30.26 in 10.0 mi NE 9.2 mph - N/A   Overcast
9:55 PM 69.8 °F 59.0 °F 68% 30.26 in 10.0 mi NE 9.2 mph - N/A   Mostly Cloudy
10:15 PM 69.8 °F 59.0 °F 68% 30.26 in 10.0 mi NE 6.9 mph - N/A   Mostly Cloudy
10:35 PM 69.8 °F 59.0 °F 68% 30.27 in 10.0 mi NE 10.4 mph - N/A   Partly Cloudy
10:55 PM 68.0 °F 59.0 °F 73% 30.27 in 10.0 mi NE 9.2 mph - N/A   Scattered Clouds
11:15 PM 68.0 °F 59.0 °F 73% 30.26 in 10.0 mi NE 9.2 mph - N/A   Scattered Clouds
11:35 PM 68.0 °F 59.0 °F 73% 30.26 in 10.0 mi NE 8.1 mph - N/A   Clear
11:55 PM 68.0 °F 59.0 °F 73% 30.26 in 10.0 mi NE 11.5 mph - N/A   Clear